Wind_Speed
62 63 63 63 64 65 66 67 68 69 70 71 73 74 75 76 77 79 80 81 82 83 83 84 85 86 86 87 87 88 88 88 88 89 89 90 92 93 94 95 96 96 96 95 94 92 91 89 88 86 85 83 82 81 81 81 81 81 82 83 84 86 88 89 89 88 86 83 80 77 75 74 74 75 76 78 80 81 82 83 85 87 89 91 93 95
62 63 63 64 64 65 67 68 69 70 71 72 73 74 76 77 78 79 80 81 82 83 84 84 85 85 86 86 86 87 87 87 88 88 89 91 92 94 95 96 96 96 95 93 92 90 88 86 85 83 81 80 78 77 77 76 76 77 78 79 81 84 85 86 85 84 82 79 76 74 72 71 71 73 74 76 77 78 79 81 82 84 86 88 91 93
63 63 64 64 65 66 68 69 70 71 71 73 74 75 76 77 79 80 81 81 82 83 83 84 84 85 85 85 86 86 86 86 87 88 90 91 93 95 96 96 96 95 94 92 90 88 86 84 82 80 78 77 75 73 72 72 72 73 74 76 78 81 83 83 82 80 78 75 73 71 69 69 70 71 72 74 75 76 77 79 81 83 85 87 89 92
63 64 64 65 66 67 68 70 71 72 72 73 74 75 76 78 79 80 81 81 82 83 83 84 84 84 84 85 85 85 85 86 87 89 90 92 94 96 96 96 96 94 93 90 88 86 84 82 80 78 76 74 71 69 68 67 68 69 70 72 75 78 80 80 79 76 74 72 70 68 67 67 68 70 71 72 73 74 76 78 80 82 84 86 89 91
64 65 66 66 67 69 70 71 72 72 73 74 75 76 77 78 79 80 80 81 82 82 83 83 83 84 84 84 84 84 85 86 87 89 91 93 95 96 97 96 95 93 91 89 87 85 83 80 78 76 74 71 68 66 64 63 64 65 67 69 73 76 77 77 75 73 71 69 67 66 65 66 67 68 69 70 72 73 75 77 79 81 84 86 88 90
65 66 67 68 69 70 71 71 72 73 74 74 75 76 77 78 79 79 80 81 81 82 82 83 83 83 83 83 84 84 85 86 88 90 92 94 96 97 97 96 95 93 91 88 86 84 82 80 77 75 72 69 65 63 61 60 60 61 64 67 70 73 75 74 72 70 67 66 65 64 64 64 65 67 68 69 71 72 74 76 78 81 83 85 87 89
66 67 68 69 69 70 71 72 73 73 74 75 76 76 77 78 79 79 80 80 81 82 82 82 82 83 83 83 84 84 85 87 89 91 93 95 96 97 97 96 94 92 90 87 85 83 81 79 77 74 71 67 64 61 59 57 57 59 61 64 68 70 72 71 69 67 65 63 62 62 62 63 64 65 67 68 70 72 74 75 77 79 81 84 86 89
68 69 69 70 70 71 72 72 73 74 74 75 76 77 77 78 78 79 79 80 81 81 82 82 82 82 83 83 84 85 86 87 89 91 93 95 96 96 95 93 91 89 87 86 84 82 80 78 76 73 70 67 63 60 57 55 55 56 59 62 65 67 68 68 66 64 62 61 60 60 61 62 63 64 66 67 69 71 73 74 76 78 80 82 85 89
69 70 70 71 71 72 72 73 73 74 74 75 76 76 77 78 78 78 79 80 80 81 81 82 82 82 83 84 84 85 86 88 90 91 93 94 95 94 92 90 87 85 84 83 81 80 78 76 74 72 69 66 63 60 57 55 54 55 57 60 62 65 65 64 63 61 60 59 59 59 60 61 62 63 65 67 68 70 72 73 75 77 79 82 85 88
70 71 71 71 72 72 73 73 74 74 75 75 76 76 77 77 78 78 78 79 80 80 81 81 82 83 83 84 85 85 86 88 89 91 93 93 93 91 88 85 83 81 80 79 78 77 75 73 72 70 68 65 62 59 56 54 53 54 55 57 60 61 62 61 60 59 58 58 58 58 58 59 61 62 64 66 68 69 71 73 74 77 79 82 84 87
71 71 72 72 73 73 73 73 74 75 75 76 76 76 77 77 77 78 78 79 79 80 80 80 81 82 84 84 85 85 86 88 89 91 92 92 90 87 84 81 79 78 77 77 76 74 72 71 69 67 65 63 60 57 55 53 53 53 54 55 57 59 59 58 58 57 56 56 56 57 57 58 60 62 63 65 67 68 70 72 74 76 79 81 84 87
71 72 72 73 73 74 74 74 74 75 75 76 77 77 77 77 77 77 78 78 79 79 80 80 81 82 83 85 86 86 86 87 89 90 90 89 87 84 80 77 76 75 75 74 73 72 70 68 67 65 63 60 58 55 54 52 52 52 52 53 55 56 56 56 56 55 55 55 55 55 56 58 59 61 63 64 66 68 70 72 74 76 79 81 84 87
72 72 73 73 74 74 75 75 75 76 76 76 77 77 78 77 78 78 78 78 79 79 79 80 80 82 83 85 86 86 87 87 87 88 88 87 84 80 77 74 73 73 72 71 70 69 68 66 65 63 60 58 55 53 52 51 50 51 51 52 52 53 54 54 54 53 53 53 54 54 56 57 58 60 62 63 65 67 69 71 74 76 79 81 84 88
72 73 73 74 75 75 75 76 76 76 77 77 77 77 77 77 78 78 78 78 78 78 78 79 80 81 83 85 86 87 86 86 86 86 85 83 80 77 74 72 70 70 70 69 67 66 65 64 63 61 58 56 53 51 50 49 49 49 49 50 50 51 52 52 52 52 52 52 53 53 54 56 57 59 61 62 64 66 68 70 73 76 78 81 84 88
72 73 74 75 75 76 76 76 77 77 77 77 77 77 77 78 78 78 78 79 79 78 78 78 79 81 83 84 86 86 86 85 85 84 82 80 77 74 72 70 68 68 67 66 65 63 63 61 60 58 56 53 51 49 48 47 47 47 48 48 49 49 50 50 50 50 50 51 51 52 53 55 56 58 59 61 63 65 67 70 72 75 77 81 85 89
72 73 74 75 75 76 76 77 77 77 77 77 77 77 77 78 78 78 79 79 79 78 78 79 79 81 82 83 84 85 85 84 83 82 80 77 74 72 69 68 66 65 64 63 62 60 60 59 57 55 53 51 49 48 47 46 46 46 46 46 47 47 48 48 48 48 49 49 50 51 52 53 55 56 58 60 62 65 67 69 72 74 77 81 85 89
73 73 74 75 75 76 76 77 77 77 77 77 77 77 77 78 78 79 79 79 78 78 78 78 79 81 82 83 83 83 83 83 81 79 77 75 72 70 67 66 65 63 62 60 59 58 57 56 54 53 51 49 47 46 45 44 44 44 44 45 45 46 46 46 46 47 47 47 48 49 50 52 53 55 57 60 62 65 67 70 72 75 78 82 86 89
73 73 74 74 75 76 76 77 77 77 77 77 77 77 77 78 78 79 79 79 78 78 78 79 79 81 82 83 83 82 81 81 79 77 74 72 70 67 65 64 63 61 59 57 56 55 54 53 52 50 49 47 45 44 43 43 42 43 43 44 44 44 44 44 44 45 45 46 46 47 49 51 53 55 57 60 62 65 67 70 73 76 80 83 86 89
73 74 74 74 75 75 76 77 77 77 77 76 77 77 78 78 79 79 79 78 78 78 78 79 80 81 81 82 82 81 80 79 77 74 72 70 68 66 64 63 61 59 57 55 53 52 51 50 49 48 46 45 43 42 42 41 41 41 42 42 42 43 42 42 42 43 43 44 45 46 48 50 52 55 57 60 62 64 67 70 73 77 81 84 87 89
73 74 74 75 75 75 76 77 77 77 77 76 76 77 78 78 78 79 79 78 78 78 78 79 80 81 81 81 81 79 78 76 74 72 69 67 66 64 63 61 60 58 55 53 51 50 49 47 46 45 44 43 42 41 40 39 40 40 40 41 41 41 40 40 41 41 42 42 44 45 47 49 52 54 57 59 61 64 67 70 74 78 81 84 87 90
74 74 75 75 75 75 76 77 77 77 77 76 76 77 78 78 78 78 78 78 78 78 79 80 81 81 81 81 80 78 76 75 73 70 67 65 64 62 61 60 58 56 54 51 49 48 46 45 44 43 42 41 40 39 38 38 38 39 39 39 39 39 39 39 39 39 40 41 43 45 47 49 51 54 56 58 61 64 67 71 75 78 81 84 87 90
74 74 75 75 75 75 75 76 77 77 76 76 77 77 78 78 78 78 78 78 78 78 79 80 81 81 81 80 79 77 74 73 71 69 66 64 62 60 59 57 56 54 52 49 47 46 44 43 41 40 40 39 38 37 37 37 37 37 38 38 38 37 37 37 37 38 39 41 42 44 46 48 50 53 55 58 61 64 68 72 75 78 81 84 87 91
73 74 74 75 75 75 75 76 76 76 76 76 77 77 77 78 78 78 78 78 78 78 79 80 81 80 80 78 77 75 73 71 69 66 64 62 59 58 56 55 53 52 50 48 45 44 42 40 39 38 38 37 36 35 35 35 36 36 36 36 36 35 35 36 36 37 39 40 42 44 46 47 50 52 55 58 62 65 69 72 75 78 82 85 88 91
72 73 74 74 74 74 75 75 76 76 76 76 76 77 77 77 77 77 77 77 77 77 78 79 80 79 79 77 75 73 71 69 67 65 62 59 57 55 54 52 51 49 47 45 43 42 40 39 37 36 36 35 34 34 34 34 34 35 35 35 34 34 34 35 36 37 38 40 41 43 45 47 49 52 55 59 62 66 69 72 76 79 82 85 88 91
72 73 73 74 74 74 74 75 75 76 76 76 76 76 77 77 77 77 76 76 76 77 77 78 79 79 78 77 75 72 70 68 66 64 61 58 55 53 51 50 49 47 45 43 41 40 38 37 36 35 34 33 33 32 32 33 33 33 33 33 33 33 33 34 35 36 38 39 41 43 44 46 49 52 55 59 63 66 70 73 76 79 82 85 89 92
72 72 73 73 73 73 74 75 75 75 75 76 76 76 76 76 76 76 76 76 76 77 77 78 79 78 77 75 73 71 69 67 64 62 60 57 54 52 50 48 47 45 43 41 39 38 36 35 34 33 32 32 31 31 31 31 32 32 32 32 32 32 33 34 35 36 37 39 40 42 44 47 49 53 56 60 64 67 70 73 77 80 83 86 89 93
72 72 72 72 73 73 73 74 75 75 75 76 76 76 76 76 76 76 76 76 76 77 78 78 78 77 76 74 72 70 67 66 64 62 59 56 53 51 49 47 45 43 41 39 37 36 35 34 33 32 31 30 30 30 30 30 30 31 31 31 31 31 32 33 34 35 37 39 41 43 45 48 51 54 58 61 65 68 71 74 78 81 84 87 90 94
71 72 72 72 72 73 73 74 74 75 75 76 76 76 75 75 76 76 76 76 76 77 78 78 78 77 75 73 71 68 66 65 63 61 58 55 52 50 48 46 44 42 40 38 36 34 33 32 31 31 30 29 28 28 28 29 29 29 29 30 30 31 32 33 34 35 37 39 42 44 47 49 52 56 59 63 66 69 72 75 79 82 85 88 92 95
71 71 71 72 72 72 73 74 74 75 75 75 76 76 75 75 75 75 76 76 76 77 78 78 77 75 74 71 69 67 65 63 62 59 57 54 51 48 46 44 43 41 39 37 35 33 31 31 30 29 28 28 27 27 27 27 28 28 29 29 30 31 31 33 34 36 38 40 43 45 48 51 54 58 61 64 67 70 74 77 80 83 86 89 92 96
71 71 71 71 71 72 73 73 74 74 75 75 76 76 75 75 75 75 75 75 76 77 78 78 76 74 72 70 68 66 64 62 60 58 56 54 51 48 45 43 41 39 37 36 34 32 30 29 29 28 27 26 26 26 26 26 27 27 28 29 30 30 31 33 34 37 39 42 44 47 50 53 56 60 63 66 69 72 75 78 81 84 87 90 93 97
71 70 70 71 71 72 72 73 74 74 75 75 75 75 75 75 75 75 75 75 76 77 78 77 76 74 72 70 69 67 64 61 59 57 55 53 50 47 44 42 40 38 36 34 33 31 30 28 28 27 26 25 25 25 25 25 25 26 27 28 29 30 31 33 35 38 40 43 45 48 51 54 57 61 64 67 70 73 76 79 82 84 87 90 94 98
70 70 70 70 71 71 72 73 73 74 74 75 75 75 75 75 74 74 75 75 76 77 77 77 75 73 71 69 68 66 63 60 58 56 54 52 49 46 43 41 39 37 34 33 31 30 29 28 27 26 25 24 24 23 24 24 24 25 26 28 29 30 32 34 36 38 41 44 46 49 52 55 58 61 64 67 70 73 77 79 82 85 87 90 94 98
69 69 69 70 70 71 72 72 73 73 74 74 75 75 74 74 74 74 75 75 76 76 77 76 75 73 71 69 66 64 61 59 56 54 52 50 47 45 42 40 38 36 34 31 30 29 28 27 27 26 25 24 23 23 23 23 24 25 26 27 29 30 32 34 37 39 42 44 47 49 52 55 59 62 65 68 71 74 77 80 83 85 88 90 93 97
69 69 69 69 70 70 71 71 72 73 73 74 74 74 74 74 74 74 74 75 76 76 76 75 74 73 71 68 66 63 61 58 55 52 50 48 46 44 41 39 37 35 33 30 29 28 27 27 26 25 24 23 22 22 22 22 23 24 25 27 29 31 32 35 37 40 42 44 47 50 53 56 59 62 65 68 71 74 77 80 83 85 87 90 93 96
68 68 68 69 69 70 70 71 72 72 72 73 73 73 73 73 73 74 74 75 76 76 75 74 73 71 70 68 66 63 61 57 54 51 49 47 45 42 40 38 36 34 32 30 28 27 26 26 25 25 24 22 21 21 21 21 22 24 25 27 29 31 33 35 38 40 43 45 47 50 53 56 59 62 66 69 72 75 77 80 82 85 87 90 92 96
67 67 67 68 68 69 70 70 71 71 72 72 72 72 72 73 73 73 74 75 75 75 75 73 71 69 68 66 64 62 59 57 54 51 48 45 43 41 39 37 35 33 31 29 27 26 25 25 25 24 23 22 21 20 20 21 22 23 25 27 29 31 33 36 38 41 43 45 48 51 54 57 60 63 66 69 72 75 77 80 82 84 87 89 92 96
66 66 67 67 68 68 69 70 70 71 71 71 71 71 71 72 72 73 74 74 75 75 74 73 71 68 66 64 62 60 57 55 52 50 47 44 41 39 37 35 34 32 30 28 26 25 24 24 24 23 23 21 20 20 20 21 22 23 25 27 29 32 34 37 39 41 44 46 48 51 54 57 60 64 67 70 72 75 77 80 82 84 87 89 93 96
65 66 66 67 67 68 68 69 70 70 70 70 70 70 71 71 72 72 73 74 75 75 74 73 71 68 66 63 60 58 55 53 51 49 46 43 40 38 36 34 32 31 29 27 25 24 23 23 23 23 22 21 20 20 20 20 21 23 25 27 30 32 35 37 40 42 44 46 49 52 55 58 61 64 68 71 73 75 78 80 82 84 87 90 93 97
65 65 65 66 66 67 68 68 69 69 69 69 69 69 70 70 71 72 73 74 74 74 73 72 70 68 66 63 60 57 54 52 50 48 45 42 40 37 35 33 31 30 28 26 24 23 22 22 22 22 22 21 20 19 20 20 21 23 25 28 30 33 36 38 40 43 45 47 50 53 55 58 62 65 68 71 74 76 79 81 83 85 87 90 94 98
64 64 65 65 66 66 67 68 68 68 68 68 68 68 68 69 70 71 72 73 73 73 72 71 70 67 65 62 59 56 53 50 48 46 44 42 39 36 34 32 31 29 27 25 24 22 22 22 22 22 22 21 20 19 19 20 21 23 25 28 31 33 36 39 41 43 46 48 51 53 56 59 62 66 69 72 75 77 79 81 83 85 88 91 95 99
63 63 64 64 65 65 66 67 67 67 67 67 67 67 68 68 70 71 72 73 73 72 72 71 69 67 64 61 58 55 52 49 47 45 43 41 38 36 33 31 30 28 26 24 23 21 21 21 21 21 21 21 20 19 19 20 21 23 25 28 31 34 37 39 42 44 47 49 51 54 56 60 63 66 70 73 75 77 79 81 83 86 88 91 94 98
62 63 63 64 64 65 65 66 66 67 66 66 66 66 66 67 69 70 72 73 73 72 72 71 69 67 64 61 57 54 51 48 45 43 42 40 38 35 33 31 29 27 26 24 22 21 20 20 20 21 21 21 20 19 19 20 21 23 25 28 31 35 38 40 43 45 47 50 52 54 57 60 64 67 70 73 75 77 79 81 83 85 88 91 94 98
62 62 62 63 63 64 65 65 66 66 65 65 65 65 65 66 67 69 71 72 72 72 71 70 69 67 64 61 57 54 50 47 44 42 40 38 37 34 32 30 28 26 25 23 21 20 19 19 19 20 21 20 20 19 19 20 21 23 26 29 32 35 38 41 43 46 48 50 53 55 58 61 64 67 70 73 75 77 79 81 83 85 88 90 94 98
61 61 62 62 62 63 64 65 65 65 65 65 64 64 64 65 66 68 70 71 71 71 71 70 68 66 63 60 57 54 50 46 43 41 38 37 35 34 31 29 28 26 24 22 21 19 18 18 19 20 20 20 20 19 19 20 22 23 26 29 32 35 38 41 44 46 49 51 53 56 58 61 65 68 70 73 75 77 79 81 83 85 87 90 94 98
60 61 61 61 62 62 63 64 64 64 64 64 64 64 64 65 66 67 69 70 71 70 70 69 67 65 63 59 56 53 50 46 43 40 37 35 33 32 30 29 27 25 23 22 20 19 18 17 18 19 20 20 20 19 20 20 22 24 26 29 32 36 39 41 44 47 49 51 54 56 59 62 65 68 71 73 75 77 79 81 83 85 87 91 94 99
59 60 60 60 61 62 62 63 63 63 63 63 63 63 63 64 65 66 68 69 70 70 69 68 66 64 62 58 55 52 49 46 43 40 37 34 32 30 29 27 26 24 23 21 20 18 17 17 17 18 19 19 19 19 20 21 22 24 27 29 33 36 39 42 45 47 49 52 54 57 60 63 66 69 71 73 75 77 79 81 83 85 88 91 95 100
59 59 59 60 60 61 62 62 62 62 62 62 62 63 63 64 65 66 67 68 68 69 68 67 65 63 60 57 54 51 49 46 43 39 37 34 32 30 28 26 25 23 22 20 19 18 17 16 17 18 19 19 19 20 20 21 22 24 27 30 33 36 40 42 45 48 50 52 55 58 61 64 67 69 71 74 75 77 79 81 83 85 88 92 96 101
58 58 58 59 60 60 61 61 61 62 62 62 62 62 63 64 65 66 66 67 68 68 68 66 64 61 58 55 52 50 47 45 42 39 36 34 32 29 27 25 24 22 21 20 18 17 16 16 16 17 18 19 19 20 20 21 23 25 27 30 33 37 40 43 45 48 51 53 56 58 61 64 67 70 72 74 76 78 80 82 84 86 89 93 97 102
57 57 58 58 59 60 60 60 61 61 61 61 61 62 63 63 64 65 66 66 67 67 67 66 63 60 57 54 51 48 46 43 41 38 36 33 31 29 27 25 23 22 20 19 18 16 16 15 16 17 18 19 19 20 21 22 23 25 28 30 34 37 40 43 46 48 51 54 56 59 62 65 67 70 72 75 77 78 80 82 84 87 90 94 98 104
56 56 57 57 58 59 59 59 59 60 60 60 61 62 63 64 64 65 65 65 66 66 65 64 62 59 56 53 50 47 45 42 40 37 35 32 30 28 26 24 23 21 19 18 17 16 15 15 16 16 18 19 19 20 21 22 24 26 28 31 34 37 40 43 46 49 51 54 57 60 62 65 68 70 73 75 77 79 81 83 85 88 91 95 100 105
55 56 56 57 57 58 58 58 59 59 59 59 60 61 62 63 64 64 64 65 65 65 64 62 60 58 55 52 49 46 44 41 39 37 34 32 29 27 25 23 22 20 19 17 16 15 15 15 15 16 17 19 20 20 21 23 24 26 29 31 34 37 41 44 47 49 52 54 57 60 63 66 69 71 73 75 77 79 82 84 87 89 93 97 102 107
Wind_Direction
295 295 295 296 296 296 296 296 296 296 297 297 297 297 297 298 298 297 297 297 297 297 296 296 296 295 295 295 295 294 294 294 294 294 294 293 293 293 292 292 291 291 290 289 289 287 286 285 283 281 279 277 275 273 271 270 268 267 265 264 263 262 261 260 260 260 260 259 258 257 254 252 249 246 243 241 238 236 234 233 231 229 228 226 224 223
297 297 298 298 298 298 298 298 298 298 298 299 299 299 299 298 298 298 298 298 297 297 297 296 296 296 296 296 296 295 295 295 295 295 295 295 295 295 294 294 293 293 292 291 290 288 287 285 283 282 280 278 275 273 271 270 268 266 265 263 262 261 260 260 260 259 259 259 257 256 253 250 247 244 242 239 237 235 233 231 230 228 226 224 223 221
300 300 300 300 300 300 300 300 300 300 300 300 299 299 299 299 299 298 298 298 298 298 298 298 297 297 297 297 297 297 297 297 297 297 297 297 297 296 296 295 295 294 293 292 291 290 288 286 284 282 280 278 276 274 272 270 268 266 264 262 261 261 260 260 260 259 259 258 257 254 252 248 245 243 240 238 236 234 232 230 228 226 224 223 221 219
302 302 302 302 302 302 301 301 301 300 300 300 300 299 299 299 299 299 299 299 299 299 299 299 299 298 298 298 298 298 298 299 299 299 299 299 299 298 298 297 296 296 295 294 292 291 289 287 285 283 281 279 277 275 273 270 268 265 263 261 260 260 260 260 260 259 259 257 256 253 250 247 244 241 238 236 234 232 230 228 226 224 223 221 219 217
304 304 303 303 303 303 302 302 301 301 300 300 300 300 299 299 299 300 300 300 300 300 300 300 300 300 299 299 299 299 300 300 301 301 301 301 300 300 299 299 298 297 296 295 293 292 290 288 287 285 283 281 279 276 274 271 268 265 262 261 260 259 260 260 260 259 258 256 254 251 248 245 242 239 237 235 233 231 229 227 225 223 221 219 217 216
305 305 305 304 304 303 302 302 301 301 301 300 300 300 300 300 300 300 301 301 301 301 301 301 301 301 301 300 301 301 301 302 302 303 303 302 302 301 300 300 299 298 297 296 294 293 291 289 288 286 284 282 280 278 275 271 268 264 262 260 259 259 259 259 259 259 257 255 252 249 246 243 240 237 235 233 231 229 227 225 223 221 220 218 216 214
306 306 305 305 304 303 302 302 301 301 301 301 300 300 301 301 301 302 302 302 302 302 302 302 302 302 302 302 302 303 303 304 304 304 304 303 302 302 301 300 300 299 298 296 295 293 292 290 289 287 286 284 282 279 276 272 268 264 261 259 259 259 259 259 259 258 256 254 251 248 244 241 238 236 233 231 229 227 225 224 222 220 218 216 215 213
307 306 305 305 304 303 303 302 301 301 301 301 301 301 301 302 302 303 303 303 303 303 303 303 304 304 304 304 304 304 305 305 305 305 304 303 302 302 301 300 299 298 297 296 294 293 291 290 289 288 287 285 283 280 277 272 268 264 261 259 258 258 258 259 258 257 255 252 249 245 242 239 236 234 232 230 228 226 224 222 221 219 217 215 213 212
307 306 305 305 304 304 303 303 302 302 302 302 302 302 303 303 303 303 304 304 304 304 305 305 305 305 305 305 305 305 305 306 305 305 304 303 302 301 300 300 299 298 296 295 293 292 291 290 289 288 287 285 283 281 277 273 268 264 261 259 258 258 258 258 257 255 253 250 247 243 240 237 235 232 230 228 226 224 222 220 219 217 216 214 212 211
306 306 305 305 305 304 304 303 303 303 303 303 303 303 304 304 304 304 305 305 305 306 306 306 306 306 306 305 305 306 306 306 306 305 304 303 302 301 300 299 298 297 296 294 292 291 290 289 288 287 286 285 283 281 278 274 269 265 262 259 258 257 257 257 255 253 251 248 245 241 238 236 233 231 228 226 224 222 220 219 217 215 214 212 211 210
306 306 306 305 305 305 304 304 304 304 304 304 304 304 304 304 305 305 306 306 307 307 307 307 307 307 306 306 306 306 307 307 306 306 305 303 302 301 300 300 299 298 296 294 292 291 289 288 287 286 285 284 282 280 278 274 270 266 262 259 258 257 256 255 254 252 249 246 243 239 236 234 231 229 227 225 223 221 219 217 215 213 212 211 209 208
306 306 306 306 305 305 305 305 305 305 305 305 305 305 305 306 306 306 307 307 308 308 308 308 307 307 307 307 307 307 307 307 307 306 305 304 303 302 301 300 299 298 296 294 292 291 290 289 287 286 284 283 282 280 277 274 270 267 263 260 258 256 255 254 252 250 247 244 241 237 235 232 229 227 225 223 221 219 217 215 214 212 210 209 208 206
306 306 306 306 306 306 306 306 306 306 306 306 306 306 307 307 307 308 308 308 308 308 308 308 308 308 308 308 308 308 308 308 308 307 306 305 303 302 302 301 300 298 296 294 292 291 290 289 287 286 285 283 282 279 277 274 270 267 263 260 258 256 254 252 250 248 245 242 239 235 232 230 228 225 223 221 220 218 216 214 212 211 209 208 206 205
307 306 306 306 306 306 306 306 306 306 307 307 307 307 307 308 308 308 309 309 309 309 309 309 309 309 309 309 309 309 309 309 309 308 307 305 304 303 302 302 300 298 296 294 292 291 290 289 287 286 285 284 282 279 276 273 270 266 263 260 257 255 253 251 248 246 243 240 237 233 231 228 226 224 222 220 218 216 214 213 211 209 208 207 205 204
307 307 306 306 306 307 307 307 307 307 307 307 308 308 308 308 309 309 309 310 310 310 310 310 310 310 310 310 310 310 310 310 310 309 308 306 305 304 303 302 300 298 296 294 292 291 290 288 287 286 285 284 282 279 276 272 269 266 263 260 257 254 251 249 247 244 241 238 235 232 229 227 224 222 220 218 216 214 213 211 210 208 207 206 205 204
307 307 306 306 306 307 307 307 307 307 308 308 309 309 309 309 310 310 310 310 311 311 311 311 311 311 311 311 311 311 311 311 311 310 309 307 306 305 304 302 300 298 296 294 293 291 290 288 287 286 285 284 281 279 275 272 268 265 262 259 256 253 250 247 245 242 239 236 233 230 227 225 223 220 218 216 214 212 211 209 208 207 205 204 204 203
307 307 306 307 307 307 307 307 307 308 308 309 309 309 310 310 310 311 311 311 311 312 312 312 312 313 313 313 312 312 313 312 312 311 310 309 307 306 304 303 301 298 296 295 293 291 290 288 287 286 285 283 281 278 274 271 267 264 261 257 254 251 249 246 243 240 237 234 231 228 225 223 220 218 216 214 212 211 209 207 206 205 204 203 203 202
307 307 307 307 307 307 307 307 308 308 309 309 310 310 310 311 311 311 312 312 312 312 313 313 313 314 314 315 314 314 314 313 313 311 311 309 308 307 305 303 301 299 297 295 294 292 290 289 287 286 284 282 280 277 273 270 266 263 259 256 253 250 247 244 241 238 235 232 229 226 223 220 218 216 214 212 210 209 207 206 204 203 202 202 202 201
307 307 307 307 307 307 307 308 308 308 309 310 310 311 311 311 312 312 312 313 313 313 314 315 315 315 316 316 315 315 315 314 313 312 312 311 309 308 306 304 302 300 298 296 294 292 291 289 287 285 283 281 278 275 272 268 265 261 258 255 252 249 246 243 240 237 233 230 227 223 221 218 216 214 212 210 209 207 206 204 203 202 202 201 200 200
307 307 307 307 308 308 308 308 308 309 310 310 311 311 312 312 312 313 313 314 314 314 315 316 316 317 317 317 316 316 315 315 314 313 313 312 311 309 307 305 303 301 299 297 295 293 291 289 287 285 283 280 277 274 270 267 263 260 256 253 250 247 244 241 238 235 231 228 224 221 218 216 214 212 210 208 207 205 204 203 202 201 201 200 199 198
307 307 307 307 308 308 308 308 309 309 310 311 311 312 312 312 313 313 314 314 315 316 316 317 318 318 318 318 317 317 316 316 316 315 314 313 311 309 307 305 303 301 299 298 296 294 291 289 287 284 282 279 276 272 269 265 262 258 255 252 249 246 242 239 236 232 229 225 222 219 216 214 212 210 208 206 205 204 203 202 201 201 200 199 198 197
307 307 307 308 308 308 308 308 309 310 311 311 312 312 313 313 314 314 315 315 316 317 318 319 319 319 319 319 318 318 317 317 316 316 315 314 312 309 307 305 303 301 300 298 296 294 291 289 286 284 281 278 275 271 268 264 260 257 253 250 247 244 240 237 233 230 226 223 220 217 214 212 210 208 206 204 203 202 201 201 200 200 199 198 198 197
307 307 307 307 308 308 308 309 309 310 311 312 312 313 313 314 314 315 316 316 317 318 319 319 319 319 319 319 319 319 318 318 317 316 315 314 312 310 307 306 304 302 300 298 296 294 292 289 286 283 280 277 273 270 266 262 259 255 252 249 246 242 238 235 231 227 224 220 217 214 212 210 207 205 204 202 202 201 200 200 199 199 198 197 197 196
307 307 307 307 308 308 309 309 310 310 311 312 312 313 314 314 315 316 316 317 317 318 319 320 320 320 320 320 320 320 320 319 318 317 316 314 312 310 308 306 304 302 300 298 297 294 291 289 285 282 279 276 272 269 265 261 258 254 251 248 244 240 236 232 229 225 221 218 215 212 209 207 205 203 202 201 200 200 199 199 198 198 197 197 196 195
307 307 307 307 308 308 309 309 310 311 312 312 313 313 314 315 316 316 316 317 318 319 320 321 321 322 322 322 322 321 320 319 318 318 316 315 313 311 309 307 305 302 300 298 297 294 292 288 285 282 278 275 271 267 264 260 256 253 250 246 242 238 234 230 226 222 219 215 212 209 206 204 202 201 200 200 199 199 198 198 197 197 196 196 195 194
307 307 307 307 308 309 309 310 310 311 312 313 313 314 315 315 316 316 317 318 319 320 321 322 323 323 323 323 323 322 321 320 319 318 317 316 314 312 310 308 305 303 301 299 296 294 291 288 285 281 278 274 270 266 262 259 255 252 248 244 240 236 232 228 224 220 216 212 209 206 203 201 200 199 199 198 198 198 197 197 197 196 196 195 194 193
307 307 307 308 308 309 309 310 311 312 312 313 314 314 315 316 317 317 318 319 321 322 323 323 323 324 324 324 324 323 322 321 320 319 318 317 315 314 311 309 307 304 302 299 297 294 291 288 284 281 277 273 269 265 261 257 253 250 246 243 238 234 230 225 221 217 213 210 206 203 201 199 197 197 197 197 197 197 196 196 196 195 195 194 194 193
307 307 308 308 309 309 310 311 311 312 313 313 314 315 316 317 317 318 319 320 322 323 323 324 324 325 325 325 325 324 323 322 321 320 319 318 316 315 312 310 308 305 303 300 297 294 291 288 284 280 276 272 268 264 260 256 252 248 244 240 236 232 227 223 219 215 211 207 204 201 198 196 195 195 196 196 196 195 195 195 195 195 195 194 193 192
307 308 308 309 309 310 311 311 312 313 313 314 314 315 316 317 318 319 320 321 323 324 324 325 325 325 326 326 325 324 323 322 321 320 319 318 317 315 313 311 308 306 303 301 298 294 291 288 284 280 276 272 267 263 258 254 250 246 242 238 234 229 225 220 216 212 209 205 202 199 196 194 194 194 195 195 195 194 195 195 195 195 194 194 193 192
308 308 309 309 310 310 311 312 312 313 314 314 315 316 317 318 319 319 321 322 323 324 325 325 326 326 327 327 326 325 324 323 322 321 320 319 317 316 314 311 309 306 304 302 299 295 292 288 284 280 275 271 266 261 256 252 248 243 239 235 231 227 222 218 214 210 207 203 200 197 195 193 193 194 194 194 194 194 194 194 194 194 194 193 193 191
308 309 309 310 310 311 311 312 313 313 314 315 315 316 318 318 319 320 321 323 324 325 326 326 327 327 328 328 327 326 325 324 322 321 320 319 318 316 314 312 309 306 304 302 299 297 293 288 284 279 274 270 265 260 255 250 245 241 237 233 229 224 220 216 212 209 206 202 199 196 194 193 193 193 194 194 193 193 194 194 194 194 194 193 193 192
308 309 310 310 311 311 312 312 313 314 314 315 316 317 318 319 320 321 322 323 324 325 326 326 327 328 329 329 328 327 325 324 322 321 320 319 318 316 314 312 309 307 304 302 300 297 293 289 284 279 274 269 263 258 253 247 243 238 234 230 226 222 218 214 211 208 205 202 198 195 193 192 192 193 193 193 193 193 193 193 194 194 194 193 193 192
309 309 310 310 311 311 312 313 313 314 314 315 316 317 318 319 320 321 323 324 325 326 326 327 328 329 329 329 328 327 325 324 322 321 320 319 318 316 314 312 309 307 304 302 299 297 293 289 284 279 273 268 262 256 251 245 240 235 231 227 224 220 216 213 210 207 204 201 197 194 192 191 192 192 193 193 193 193 193 193 193 193 193 193 193 192
309 309 310 310 311 311 312 313 313 314 315 315 316 318 319 319 320 322 323 324 325 326 326 327 328 329 330 330 329 327 325 324 322 322 321 319 318 316 315 312 310 307 305 303 300 297 293 289 284 279 273 267 260 254 248 243 237 232 228 225 221 217 214 211 209 206 204 200 197 194 191 191 191 192 192 193 193 193 193 193 193 193 193 193 193 192
309 310 310 310 311 311 312 313 313 314 314 316 317 318 319 320 321 322 324 325 325 326 326 327 328 329 330 330 329 327 325 324 323 322 321 320 318 316 314 312 310 307 305 303 300 297 293 289 284 278 272 266 259 252 246 240 234 229 225 222 218 215 212 209 207 205 203 200 196 193 191 190 190 191 192 192 193 193 193 193 193 193 193 192 192 192
309 309 310 310 311 311 312 312 313 314 315 316 317 318 319 320 321 323 324 325 325 326 326 327 328 329 330 330 329 327 326 324 323 322 321 320 318 316 314 312 310 307 305 303 301 298 294 289 283 277 271 265 257 250 243 237 231 227 222 219 216 213 210 208 206 204 202 199 195 192 190 189 189 190 191 192 192 193 193 193 193 192 192 192 191 191
309 309 310 310 310 311 312 312 313 314 315 316 317 318 319 320 322 323 324 325 325 326 327 327 328 329 329 329 328 327 325 324 323 322 321 320 318 316 314 312 310 307 305 303 301 298 293 288 282 277 270 263 255 248 241 234 229 224 220 216 213 210 208 207 205 203 201 198 195 192 190 189 188 189 190 191 192 192 192 192 192 192 192 191 191 190
309 309 309 310 310 311 312 312 313 314 315 316 317 319 319 321 322 323 324 325 326 326 327 328 328 329 329 329 328 327 325 324 323 322 321 320 319 317 315 312 309 307 305 303 301 298 293 288 282 275 269 262 254 246 238 232 226 221 217 213 211 208 207 205 203 202 199 197 194 192 190 188 188 188 189 190 191 192 192 191 191 191 191 191 190 189
309 309 309 310 310 311 312 312 313 314 315 316 318 319 320 321 322 323 324 325 326 326 327 328 329 329 329 329 328 327 326 325 323 322 321 320 319 317 315 312 310 307 305 303 300 297 293 287 281 274 268 260 252 244 236 229 224 219 214 211 209 206 205 203 202 200 198 196 194 192 190 188 187 188 189 190 191 191 191 191 191 190 190 190 190 189
309 308 309 309 310 311 311 312 313 314 315 316 318 319 320 321 322 324 324 325 326 326 327 328 329 329 329 329 328 327 326 325 324 323 321 320 319 317 315 313 310 307 305 302 300 296 292 286 279 273 266 259 250 242 234 227 222 217 213 210 207 205 204 202 201 199 197 195 193 191 189 188 187 188 189 190 190 191 190 190 190 190 190 189 189 189
308 308 308 309 310 311 311 312 313 314 315 316 318 319 320 322 323 324 325 325 326 327 327 328 329 329 329 328 328 327 326 325 324 323 322 320 319 317 315 312 310 307 304 302 299 295 290 284 278 271 264 257 249 240 232 225 220 215 211 208 206 204 202 201 200 198 197 195 193 191 189 187 187 188 189 190 190 190 190 190 189 189 189 189 188 188
307 308 308 309 310 311 311 312 313 314 315 316 317 319 320 322 323 324 325 325 326 327 328 329 329 329 329 328 327 326 325 325 324 323 322 321 319 317 315 312 309 307 304 301 299 294 289 282 276 269 262 256 248 239 231 224 218 213 209 207 204 203 201 200 199 197 196 194 192 190 188 187 187 188 189 189 190 190 189 189 189 188 188 188 187 187
307 307 308 309 310 310 311 312 313 314 315 316 318 319 321 322 324 324 325 326 326 327 328 329 329 329 329 328 327 326 325 324 324 323 322 321 319 317 315 312 309 306 304 301 297 293 287 280 273 267 261 254 246 237 229 222 216 211 208 205 204 202 200 199 197 196 195 193 191 189 188 187 187 188 189 189 189 189 189 189 188 188 187 187 186 186
306 307 308 309 310 310 311 312 313 314 315 316 318 319 321 323 324 325 325 326 327 327 328 329 329 329 329 328 326 325 324 324 324 323 322 321 319 317 314 312 309 306 303 300 297 292 286 278 271 265 259 251 244 236 227 220 214 210 206 204 203 202 200 198 197 195 194 192 191 189 188 187 187 188 188 189 189 189 188 188 187 187 186 186 185 185
306 307 308 309 310 310 311 312 313 314 315 316 318 320 322 323 324 325 325 326 327 328 328 329 329 329 329 328 326 325 324 324 323 323 322 320 318 316 314 311 308 305 302 299 295 291 284 277 269 262 256 249 242 234 226 219 213 209 205 203 202 201 200 198 196 194 193 192 190 189 187 187 187 187 188 188 188 188 187 187 186 186 185 185 184 184
306 307 308 309 309 310 311 312 313 314 315 317 318 320 322 323 324 325 326 326 327 328 328 329 329 329 328 327 326 324 324 323 323 323 322 320 318 316 313 310 308 304 301 298 294 289 282 274 266 259 253 247 240 232 224 217 212 207 204 202 200 200 199 197 196 194 192 191 189 188 187 187 187 187 188 188 188 187 187 186 185 184 184 183 183 182
306 307 308 309 309 310 311 312 313 314 315 317 319 321 322 323 324 325 326 327 327 328 328 328 328 328 328 326 325 324 324 323 323 323 322 320 318 316 313 310 306 303 300 297 293 287 280 271 263 256 250 244 237 230 222 216 210 206 203 200 199 199 198 197 195 193 191 190 189 188 187 187 187 187 187 187 187 186 186 185 184 183 183 182 182 181
306 307 308 308 309 310 311 312 313 314 316 318 319 321 322 324 324 325 326 327 328 328 328 328 328 328 327 326 325 324 323 323 323 322 321 320 318 316 313 310 306 302 299 295 291 285 278 269 260 253 247 241 235 227 220 214 209 205 202 199 198 198 198 197 195 193 191 189 188 187 187 187 186 187 187 187 186 186 185 184 183 182 182 181 180 180
306 307 308 308 309 310 311 312 313 315 316 318 320 321 323 324 325 325 326 327 328 328 328 328 328 327 326 325 324 323 322 322 322 322 321 319 318 315 312 309 305 302 298 294 289 283 275 266 257 250 243 238 231 224 217 212 208 204 201 198 197 197 197 196 195 193 191 189 187 187 187 186 186 186 186 186 186 185 184 183 182 181 180 180 179 179
306 307 307 308 309 310 311 312 313 315 317 319 320 322 323 324 325 325 326 327 328 328 328 328 327 327 326 324 323 323 322 322 322 321 320 319 317 315 312 308 305 301 297 292 287 281 273 264 254 246 240 234 228 222 216 210 207 203 200 197 196 195 195 195 195 193 191 189 187 186 186 186 186 186 186 186 185 184 183 182 181 180 179 179 178 178
306 307 307 308 309 310 311 312 314 315 317 319 321 322 323 324 325 326 326 327 328 328 328 327 327 326 325 324 323 322 322 321 321 320 320 318 316 314 311 307 303 300 295 290 285 279 271 261 251 243 236 231 226 220 214 209 205 202 199 196 195 194 194 194 194 193 191 189 187 186 185 185 185 186 186 185 184 183 182 181 179 178 178 177 177 177
Height
10275 10273 10271 10269 10267 10264 10260 10259 10256 10254 10251 10249 10245 10242 10239 10237 10234 10230 10227 10224 10220 10217 10214 10210 10207 10204 10199 10195 10191 10187 10182 10178 10174 10170 10165 10160 10155 10151 10146 10141 10136 10132 10127 10122 10119 10115 10111 10108 10105 10102 10099 10097 10094 10092 10090 10089 10087 10085 10084 10084 10083 10082 10081 10082 10083 10084 10086 10089 10092 10095 10097 10100 10102 10105 10109 10112 10116 10120 10125 10130 10135 10141 10147 10154 10161 10169
10269 10267 10265 10263 10260 10257 10254 10252 10250 10247 10245 10242 10239 10236 10233 10229 10226 10223 10220 10217 10213 10210 10206 10202 10199 10195 10191 10187 10182 10178 10174 10169 10165 10160 10155 10150 10145 10140 10134 10129 10124 10119 10115 10110 10106 10102 10099 10095 10093 10090 10087 10085 10084 10082 10080 10079 10078 10077 10075 10075 10074 10073 10072 10073 10074 10076 10078 10080 10084 10086 10089 10092 10095 10097 10100 10104 10107 10112 10117 10122 10127 10132 10139 10145 10152 10160
10263 10260 10259 10257 10254 10251 10248 10245 10242 10241 10239 10235 10232 10230 10227 10223 10220 10216 10213 10209 10205 10202 10198 10194 10190 10186 10182 10178 10174 10170 10165 10160 10156 10151 10145 10140 10134 10129 10123 10117 10112 10107 10103 10099 10094 10090 10087 10084 10081 10079 10077 10075 10074 10072 10071 10070 10069 10067 10067 10066 10065 10064 10063 10064 10066 10067 10069 10072 10075 10077 10080 10084 10087 10089 10092 10096 10100 10104 10109 10114 10119 10125 10131 10137 10144 10151
10257 10255 10252 10250 10248 10245 10242 10239 10236 10234 10232 10230 10227 10223 10220 10217 10213 10210 10206 10202 10198 10194 10190 10186 10182 10178 10174 10169 10165 10161 10157 10152 10147 10142 10136 10130 10124 10118 10112 10106 10101 10096 10091 10087 10083 10079 10076 10073 10070 10068 10066 10065 10064 10063 10062 10062 10060 10059 10058 10056 10055 10054 10054 10056 10058 10060 10063 10065 10067 10070 10073 10075 10079 10081 10084 10088 10092 10097 10101 10106 10111 10117 10122 10129 10135 10142
10251 10249 10247 10244 10242 10239 10235 10233 10230 10228 10225 10224 10220 10217 10214 10210 10207 10203 10199 10195 10191 10187 10182 10178 10174 10170 10165 10161 10157 10153 10149 10144 10139 10134 10127 10120 10114 10107 10101 10095 10090 10085 10080 10076 10072 10069 10065 10062 10060 10058 10056 10055 10055 10054 10054 10053 10052 10050 10049 10049 10047 10047 10047 10048 10050 10053 10056 10058 10060 10062 10065 10069 10071 10074 10077 10081 10085 10089 10094 10098 10103 10108 10114 10120 10127 10134
10245 10243 10241 10239 10236 10233 10230 10227 10224 10222 10220 10217 10214 10211 10207 10204 10200 10196 10192 10188 10184 10179 10175 10170 10166 10162 10157 10152 10148 10144 10140 10136 10130 10125 10119 10112 10104 10097 10091 10085 10080 10075 10070 10066 10062 10059 10055 10052 10050 10049 10047 10047 10046 10046 10045 10044 10044 10043 10042 10041 10040 10040 10040 10042 10044 10047 10049 10050 10052 10055 10058 10060 10064 10067 10070 10074 10077 10082 10086 10090 10095 10101 10107 10113 10120 10128
10240 10237 10235 10233 10230 10227 10225 10221 10218 10216 10214 10210 10207 10204 10201 10197 10194 10189 10185 10180 10176 10172 10167 10163 10159 10154 10149 10144 10139 10135 10132 10128 10123 10117 10110 10104 10096 10089 10083 10077 10072 10067 10062 10057 10053 10049 10046 10043 10041 10040 10039 10039 10038 10037 10037 10036 10035 10035 10036 10035 10034 10034 10034 10035 10037 10039 10041 10043 10045 10048 10051 10053 10056 10059 10063 10067 10070 10075 10079 10084 10089 10095 10101 10107 10114 10121
10235 10232 10229 10227 10224 10221 10219 10215 10212 10210 10207 10205 10201 10198 10194 10190 10187 10183 10178 10174 10169 10164 10159 10155 10150 10145 10140 10135 10131 10127 10124 10120 10115 10110 10103 10096 10089 10082 10076 10070 10065 10060 10055 10050 10045 10041 10038 10035 10034 10032 10031 10030 10029 10029 10029 10028 10027 10027 10027 10027 10026 10027 10027 10028 10030 10032 10034 10036 10039 10041 10044 10047 10050 10053 10057 10060 10064 10068 10073 10078 10084 10090 10095 10102 10109 10114
10230 10227 10224 10221 10219 10215 10212 10209 10206 10204 10201 10198 10195 10192 10187 10184 10180 10176 10172 10167 10162 10157 10152 10147 10142 10137 10132 10128 10124 10120 10117 10113 10108 10102 10095 10088 10080 10074 10069 10064 10059 10054 10049 10043 10038 10034 10030 10029 10027 10025 10024 10022 10022 10021 10021 10020 10020 10020 10020 10019 10019 10019 10020 10022 10024 10025 10028 10030 10032 10034 10037 10040 10044 10047 10050 10054 10057 10062 10067 10072 10078 10084 10090 10097 10102 10109
10225 10222 10218 10215 10212 10210 10207 10203 10199 10197 10194 10191 10188 10185 10182 10177 10173 10169 10165 10160 10155 10150 10145 10140 10135 10129 10124 10120 10117 10114 10111 10107 10102 10095 10087 10079 10072 10065 10060 10057 10052 10047 10041 10035 10031 10027 10024 10022 10020 10019 10017 10015 10015 10014 10014 10014 10014 10013 10013 10012 10012 10013 10014 10015 10017 10019 10021 10024 10026 10029 10031 10034 10037 10040 10044 10047 10052 10056 10061 10067 10072 10078 10085 10091 10097 10104
10219 10216 10213 10209 10206 10203 10201 10197 10194 10190 10187 10184 10180 10178 10175 10171 10167 10163 10158 10154 10149 10144 10139 10135 10130 10124 10118 10112 10109 10106 10104 10099 10094 10087 10079 10070 10063 10057 10053 10049 10045 10039 10033 10028 10024 10020 10017 10015 10014 10012 10010 10009 10009 10008 10008 10007 10007 10007 10006 10006 10007 10007 10008 10010 10011 10013 10015 10017 10020 10022 10025 10029 10032 10035 10038 10042 10046 10051 10057 10062 10067 10073 10079 10085 10092 10099
10214 10210 10207 10204 10200 10197 10194 10191 10188 10185 10181 10178 10174 10170 10167 10163 10160 10156 10152 10147 10142 10138 10133 10129 10123 10117 10112 10105 10101 10098 10095 10092 10085 10078 10070 10061 10054 10049 10045 10042 10038 10032 10025 10020 10016 10014 10011 10009 10007 10005 10004 10004 10003 10003 10002 10001 10000 10000 10000 10000 10000 10001 10002 10004 10005 10007 10009 10012 10014 10017 10020 10023 10026 10029 10033 10037 10042 10047 10052 10057 10062 10068 10074 10080 10087 10094
10208 10205 10201 10198 10194 10191 10188 10185 10181 10178 10175 10172 10168 10164 10159 10155 10152 10149 10145 10140 10137 10132 10128 10122 10117 10110 10104 10099 10094 10090 10087 10084 10078 10070 10062 10052 10045 10040 10037 10035 10030 10024 10018 10013 10010 10007 10005 10002 10000 9999 9998 9998 9997 9997 9996 9995 9995 9994 9994 9994 9995 9995 9997 9998 9999 10001 10004 10006 10009 10012 10015 10018 10021 10025 10029 10033 10037 10043 10048 10053 10058 10064 10070 10076 10082 10089
10202 10199 10195 10192 10189 10185 10182 10179 10175 10172 10168 10165 10162 10157 10154 10149 10145 10142 10137 10134 10130 10126 10122 10117 10111 10105 10098 10092 10085 10081 10078 10075 10069 10062 10054 10045 10037 10033 10030 10027 10023 10017 10011 10007 10004 10002 9999 9996 9994 9993 9993 9992 9992 9992 9991 9990 9989 9989 9989 9989 9989 9990 9990 9992 9994 9996 9999 10001 10004 10007 10010 10014 10017 10021 10025 10029 10034 10039 10044 10049 10054 10060 10066 10072 10078 10084
10196 10193 10189 10185 10182 10179 10175 10172 10169 10165 10162 10159 10155 10151 10147 10143 10139 10135 10131 10127 10122 10119 10115 10110 10105 10099 10093 10087 10080 10075 10070 10065 10060 10054 10045 10037 10030 10026 10023 10020 10015 10010 10005 10001 9999 9996 9994 9991 9989 9988 9987 9987 9986 9985 9985 9984 9984 9983 9983 9983 9984 9984 9985 9987 9989 9991 9994 9997 10000 10004 10007 10010 10014 10017 10022 10026 10031 10035 10040 10045 10051 10057 10064 10070 10075 10080
10190 10187 10184 10180 10177 10173 10170 10167 10163 10160 10156 10152 10149 10145 10141 10136 10132 10129 10125 10120 10116 10112 10108 10103 10098 10092 10087 10080 10075 10069 10064 10058 10052 10045 10038 10030 10024 10020 10017 10013 10009 10004 9999 9995 9993 9990 9988 9986 9984 9983 9982 9982 9981 9980 9980 9979 9979 9978 9978 9978 9978 9979 9980 9982 9984 9987 9990 9994 9996 9999 10003 10006 10010 10014 10019 10023 10027 10032 10037 10042 10048 10055 10061 10066 10070 10075
10185 10181 10178 10175 10172 10167 10164 10160 10157 10154 10150 10147 10143 10139 10135 10130 10126 10122 10118 10114 10109 10105 10100 10096 10091 10086 10080 10074 10067 10062 10057 10051 10045 10038 10031 10024 10017 10014 10010 10006 10001 9997 9993 9990 9988 9985 9983 9981 9980 9979 9977 9977 9976 9975 9974 9974 9974 9973 9973 9973 9973 9974 9975 9978 9980 9983 9985 9989 9992 9995 9999 10003 10007 10010 10015 10019 10024 10028 10033 10039 10045 10051 10057 10061 10066 10072
10179 10176 10172 10169 10166 10162 10159 10154 10150 10147 10144 10141 10137 10133 10129 10124 10120 10116 10111 10107 10103 10098 10093 10088 10084 10079 10073 10067 10060 10055 10050 10044 10038 10031 10024 10017 10012 10007 10004 10000 9995 9991 9988 9985 9982 9980 9978 9976 9975 9974 9973 9972 9971 9970 9970 9969 9969 9968 9968 9968 9969 9970 9972 9974 9977 9980 9982 9985 9989 9992 9996 9999 10003 10007 10010 10015 10020 10025 10030 10035 10042 10047 10052 10056 10062 10069
10174 10170 10167 10164 10160 10157 10153 10149 10145 10142 10139 10135 10132 10127 10122 10118 10114 10109 10105 10100 10096 10092 10087 10081 10075 10070 10065 10060 10054 10048 10044 10038 10031 10025 10018 10012 10006 10002 9998 9994 9989 9985 9982 9980 9978 9975 9974 9972 9970 9969 9968 9967 9967 9966 9965 9965 9964 9964 9963 9964 9964 9965 9968 9971 9974 9977 9979 9982 9986 9990 9992 9996 10000 10004 10008 10012 10017 10022 10027 10032 10037 10042 10047 10052 10059 10067
10168 10164 10161 10159 10155 10151 10147 10143 10139 10136 10132 10129 10126 10122 10117 10112 10108 10104 10099 10094 10089 10085 10080 10075 10069 10063 10058 10052 10047 10042 10037 10031 10025 10019 10012 10006 10000 9996 9992 9988 9984 9980 9977 9975 9973 9971 9969 9967 9966 9965 9964 9963 9962 9962 9961 9960 9960 9959 9959 9959 9960 9962 9965 9968 9971 9974 9977 9979 9983 9987 9990 9993 9997 10001 10005 10010 10015 10020 10025 10029 10034 10039 10044 10050 10057 10064
10162 10158 10155 10152 10149 10145 10141 10137 10134 10130 10127 10124 10120 10115 10112 10107 10102 10097 10093 10089 10084 10079 10073 10068 10062 10055 10050 10045 10040 10034 10029 10024 10018 10012 10007 10001 9996 9992 9987 9983 9979 9976 9973 9971 9969 9967 9965 9963 9962 9960 9960 9959 9959 9958 9957 9957 9956 9955 9955 9956 9957 9960 9962 9965 9968 9970 9974 9977 9980 9984 9987 9990 9994 9999 10004 10008 10013 10017 10022 10026 10031 10036 10042 10048 10055 10062
10157 10153 10149 10147 10144 10140 10136 10132 10128 10124 10121 10117 10114 10110 10105 10101 10096 10091 10087 10082 10078 10072 10067 10061 10055 10049 10044 10039 10034 10028 10024 10018 10012 10007 10002 9997 9992 9987 9983 9979 9975 9972 9969 9967 9965 9962 9961 9959 9958 9957 9956 9955 9955 9954 9954 9953 9952 9952 9952 9953 9955 9957 9960 9962 9965 9968 9971 9974 9977 9980 9984 9988 9992 9997 10002 10007 10010 10015 10019 10024 10029 10034 10040 10046 10053 10060
10153 10149 10144 10140 10137 10134 10131 10127 10122 10119 10115 10112 10108 10104 10100 10095 10091 10086 10081 10077 10072 10067 10062 10056 10050 10044 10039 10034 10028 10022 10017 10012 10007 10002 9997 9992 9987 9983 9979 9975 9971 9967 9965 9963 9960 9959 9957 9955 9954 9953 9952 9952 9951 9951 9950 9950 9949 9949 9949 9950 9952 9955 9957 9960 9962 9965 9968 9971 9975 9979 9982 9986 9991 9996 10000 10004 10008 10012 10017 10022 10027 10032 10038 10045 10052 10059
10147 10144 10139 10135 10132 10129 10125 10121 10117 10114 10109 10106 10102 10098 10094 10090 10086 10081 10077 10072 10067 10062 10057 10051 10045 10039 10032 10027 10021 10015 10011 10006 10002 9997 9992 9987 9983 9979 9975 9970 9967 9964 9961 9959 9957 9955 9953 9952 9950 9950 9949 9949 9948 9948 9947 9947 9946 9946 9947 9948 9950 9952 9955 9957 9960 9963 9966 9969 9973 9977 9980 9985 9990 9994 9998 10002 10005 10010 10014 10020 10025 10030 10037 10044 10050 10059
10142 10138 10134 10130 10127 10124 10120 10116 10112 10108 10104 10100 10097 10092 10089 10085 10080 10076 10071 10067 10062 10057 10052 10045 10040 10033 10027 10021 10015 10010 10005 10001 9996 9992 9987 9982 9979 9975 9970 9967 9963 9960 9957 9955 9954 9952 9950 9949 9947 9947 9945 9945 9945 9945 9945 9944 9944 9944 9945 9946 9948 9950 9952 9955 9958 9960 9964 9967 9971 9975 9979 9984 9988 9992 9996 9999 10003 10007 10012 10018 10023 10029 10035 10042 10049 10057
10136 10133 10129 10125 10122 10119 10115 10110 10107 10102 10099 10095 10092 10088 10084 10080 10075 10070 10065 10061 10056 10051 10045 10039 10034 10028 10022 10016 10010 10005 10000 9995 9991 9987 9982 9978 9974 9970 9967 9963 9959 9956 9954 9952 9950 9949 9947 9945 9944 9944 9943 9942 9942 9942 9942 9942 9942 9942 9943 9944 9946 9949 9950 9953 9956 9959 9962 9965 9969 9974 9978 9982 9986 9990 9993 9997 10001 10005 10010 10016 10021 10027 10034 10040 10047 10055
10130 10127 10124 10120 10117 10113 10109 10105 10101 10097 10094 10090 10086 10082 10079 10074 10069 10064 10060 10055 10050 10045 10039 10034 10029 10022 10017 10011 10005 10000 9995 9990 9986 9982 9977 9974 9970 9966 9962 9959 9956 9953 9950 9949 9947 9945 9944 9942 9941 9940 9940 9940 9940 9940 9940 9940 9940 9940 9941 9943 9944 9947 9949 9951 9954 9957 9961 9964 9968 9972 9976 9980 9984 9987 9990 9994 9999 10004 10009 10014 10019 10025 10032 10039 10046 10054
10124 10121 10118 10114 10110 10107 10104 10100 10097 10092 10088 10084 10080 10076 10072 10069 10064 10059 10054 10049 10044 10039 10034 10029 10024 10018 10012 10006 10000 9995 9990 9986 9982 9977 9974 9970 9966 9962 9959 9955 9953 9950 9947 9945 9944 9942 9941 9940 9939 9937 9937 9937 9937 9937 9937 9938 9938 9939 9940 9941 9943 9945 9947 9950 9953 9956 9959 9962 9966 9970 9974 9978 9982 9985 9988 9992 9997 10002 10007 10012 10017 10024 10030 10037 10044 10052
10119 10115 10112 10109 10105 10102 10099 10095 10090 10086 10082 10077 10074 10070 10066 10063 10059 10054 10049 10044 10039 10034 10028 10023 10018 10013 10008 10002 9996 9991 9987 9982 9978 9974 9970 9966 9962 9959 9956 9953 9950 9947 9945 9942 9940 9939 9938 9937 9936 9935 9935 9935 9935 9935 9935 9936 9937 9937 9939 9940 9941 9944 9945 9949 9951 9954 9957 9960 9964 9968 9972 9976 9979 9982 9985 9990 9995 10000 10004 10010 10015 10022 10029 10035 10043 10051
10113 10109 10106 10103 10100 10096 10092 10088 10084 10080 10076 10072 10068 10064 10060 10057 10053 10049 10044 10039 10034 10029 10023 10018 10013 10008 10002 9997 9992 9987 9982 9978 9974 9970 9966 9962 9959 9956 9953 9950 9947 9945 9942 9940 9938 9936 9935 9934 9934 9933 9933 9933 9934 9934 9934 9934 9935 9936 9937 9938 9940 9942 9944 9947 9949 9952 9955 9959 9962 9967 9971 9975 9977 9980 9983 9988 9993 9998 10003 10009 10014 10020 10027 10034 10042 10050
10107 10104 10100 10097 10094 10090 10087 10083 10079 10075 10070 10067 10062 10059 10055 10051 10047 10043 10038 10034 10029 10024 10019 10014 10008 10003 9998 9993 9988 9983 9979 9974 9971 9967 9964 9960 9956 9953 9950 9947 9944 9942 9940 9938 9936 9934 9932 9932 9931 9931 9930 9931 9932 9932 9932 9933 9934 9935 9936 9937 9939 9940 9943 9945 9948 9950 9953 9957 9961 9965 9970 9974 9976 9979 9982 9987 9992 9997 10002 10008 10014 10019 10026 10033 10040 10049
10102 10099 10095 10092 10089 10085 10082 10078 10074 10070 10065 10062 10057 10054 10050 10045 10042 10037 10033 10029 10024 10019 10014 10009 10004 9999 9994 9989 9985 9980 9976 9972 9968 9964 9960 9957 9954 9950 9947 9944 9942 9940 9938 9936 9934 9932 9930 9929 9929 9929 9929 9929 9930 9930 9931 9932 9933 9934 9935 9936 9937 9939 9942 9944 9946 9949 9952 9955 9960 9964 9969 9972 9975 9979 9982 9987 9992 9997 10002 10007 10013 10019 10025 10032 10040 10047
10097 10094 10090 10087 10084 10080 10077 10073 10069 10065 10061 10057 10053 10049 10045 10040 10037 10032 10028 10024 10019 10015 10010 10005 10000 9995 9990 9985 9980 9977 9973 9969 9965 9962 9958 9954 9951 9948 9945 9942 9940 9937 9935 9934 9932 9930 9929 9927 9927 9927 9927 9927 9928 9929 9930 9931 9932 9933 9934 9935 9936 9938 9940 9942 9944 9947 9950 9954 9959 9964 9968 9972 9975 9978 9982 9986 9990 9995 10000 10005 10012 10018 10025 10032 10039 10047
10092 10089 10085 10082 10079 10075 10072 10069 10065 10061 10057 10053 10049 10045 10040 10036 10032 10028 10024 10019 10015 10010 10006 10001 9997 9992 9987 9982 9977 9973 9969 9966 9963 9959 9956 9952 9949 9945 9942 9940 9937 9935 9933 9931 9930 9929 9927 9925 9925 9925 9925 9925 9927 9927 9929 9930 9931 9932 9934 9934 9935 9937 9939 9941 9943 9945 9949 9953 9957 9962 9967 9971 9975 9978 9981 9985 9990 9995 10000 10005 10011 10017 10025 10032 10040 10048
10087 10084 10081 10078 10075 10072 10068 10064 10060 10057 10053 10049 10045 10041 10037 10032 10028 10024 10019 10015 10010 10006 10002 9997 9993 9989 9984 9980 9975 9970 9966 9962 9959 9957 9954 9950 9947 9944 9940 9938 9935 9933 9931 9929 9928 9927 9925 9924 9924 9923 9924 9924 9925 9926 9927 9929 9930 9932 9932 9934 9935 9936 9938 9940 9942 9945 9948 9952 9957 9962 9966 9970 9974 9977 9980 9984 9989 9994 10000 10005 10011 10017 10025 10032 10040 10049
10084 10080 10077 10074 10070 10067 10064 10060 10056 10052 10049 10045 10041 10037 10033 10029 10024 10020 10015 10011 10007 10002 9997 9993 9989 9985 9981 9977 9973 9969 9964 9960 9957 9954 9950 9948 9945 9942 9939 9936 9934 9931 9929 9927 9926 9925 9924 9922 9922 9922 9922 9923 9924 9925 9926 9928 9929 9930 9932 9933 9934 9935 9937 9939 9941 9944 9947 9951 9955 9960 9965 9970 9974 9977 9980 9984 9989 9994 10000 10005 10011 10018 10024 10032 10040 10049
10079 10076 10072 10070 10067 10063 10060 10056 10052 10049 10045 10041 10037 10034 10029 10025 10020 10016 10012 10007 10003 9998 9994 9989 9984 9980 9977 9974 9970 9967 9962 9959 9954 9951 9948 9945 9942 9939 9937 9934 9932 9930 9928 9926 9924 9923 9922 9921 9920 9920 9920 9922 9922 9924 9925 9927 9928 9930 9931 9932 9934 9935 9936 9938 9940 9943 9947 9950 9955 9959 9964 9969 9974 9977 9980 9984 9989 9994 9999 10005 10011 10018 10024 10032 10040 10049
10075 10072 10068 10065 10062 10059 10055 10052 10048 10044 10041 10037 10034 10030 10025 10021 10017 10012 10008 10004 9999 9994 9990 9985 9980 9977 9973 9970 9967 9964 9960 9956 9952 9949 9945 9942 9940 9937 9935 9932 9930 9928 9926 9925 9923 9922 9921 9920 9919 9919 9919 9920 9921 9922 9924 9925 9927 9929 9930 9932 9933 9934 9935 9937 9940 9942 9946 9950 9954 9959 9964 9969 9973 9977 9980 9984 9988 9993 9999 10005 10011 10018 10025 10032 10040 10049
10070 10067 10064 10061 10058 10055 10051 10048 10044 10040 10037 10034 10030 10026 10022 10018 10014 10009 10005 10000 9995 9991 9986 9982 9977 9973 9969 9966 9964 9960 9957 9954 9950 9946 9943 9940 9937 9935 9932 9930 9928 9926 9924 9923 9922 9920 9920 9919 9918 9918 9918 9919 9920 9921 9923 9925 9926 9928 9930 9931 9932 9933 9935 9937 9939 9942 9945 9949 9953 9958 9962 9967 9972 9975 9979 9983 9987 9992 9998 10004 10010 10017 10025 10032 10040 10049
10066 10063 10060 10057 10054 10051 10047 10044 10040 10037 10034 10030 10027 10023 10019 10015 10010 10005 10001 9997 9992 9988 9983 9979 9974 9970 9966 9964 9960 9957 9954 9950 9947 9944 9940 9938 9935 9933 9930 9928 9926 9924 9923 9922 9920 9919 9919 9917 9917 9917 9917 9918 9919 9920 9922 9924 9925 9927 9929 9930 9931 9932 9934 9936 9938 9941 9945 9949 9952 9957 9962 9967 9971 9974 9978 9982 9987 9992 9997 10004 10010 10017 10024 10032 10041 10050
10062 10059 10056 10053 10050 10047 10044 10040 10037 10033 10030 10027 10023 10020 10016 10012 10007 10002 9997 9992 9988 9984 9980 9975 9970 9966 9962 9960 9957 9955 9952 9949 9945 9942 9939 9935 9933 9931 9929 9927 9925 9923 9921 9920 9919 9918 9917 9917 9916 9915 9915 9917 9918 9919 9920 9922 9924 9927 9929 9930 9931 9932 9934 9935 9938 9940 9944 9948 9952 9957 9962 9966 9970 9974 9977 9982 9987 9992 9998 10004 10010 10017 10025 10033 10042 10050
10058 10055 10052 10049 10046 10043 10039 10036 10033 10030 10027 10024 10020 10017 10013 10009 10004 9999 9994 9989 9985 9980 9976 9972 9967 9963 9959 9956 9954 9951 9949 9946 9943 9940 9937 9934 9931 9929 9927 9925 9923 9921 9920 9919 9918 9917 9916 9915 9915 9915 9915 9915 9917 9918 9919 9921 9924 9925 9928 9929 9930 9931 9933 9935 9937 9940 9944 9947 9952 9957 9961 9965 9970 9974 9977 9982 9987 9992 9999 10005 10012 10019 10027 10035 10044 10053
10054 10051 10048 10045 10042 10039 10035 10032 10029 10025 10023 10020 10017 10013 10010 10006 10002 9997 9992 9987 9982 9977 9973 9969 9965 9960 9957 9954 9950 9947 9945 9943 9940 9938 9935 9932 9929 9927 9925 9923 9922 9920 9919 9917 9917 9916 9915 9915 9914 9914 9914 9915 9915 9917 9919 9920 9922 9924 9927 9928 9929 9930 9932 9934 9937 9940 9944 9947 9952 9956 9960 9965 9969 9973 9977 9982 9987 9993 9999 10005 10012 10019 10027 10036 10045 10055
10049 10047 10044 10041 10038 10035 10032 10028 10025 10022 10019 10015 10012 10009 10006 10002 9999 9994 9989 9984 9979 9975 9970 9966 9962 9958 9955 9951 9948 9944 9942 9940 9938 9935 9933 9930 9928 9925 9924 9922 9920 9919 9917 9916 9915 9915 9914 9914 9914 9913 9913 9914 9915 9916 9917 9919 9921 9924 9925 9927 9929 9930 9932 9934 9937 9940 9943 9947 9951 9955 9960 9965 9969 9973 9977 9982 9987 9993 9999 10005 10013 10020 10029 10037 10047 10057
10045 10042 10040 10037 10034 10031 10027 10024 10021 10018 10015 10012 10009 10005 10002 9999 9995 9991 9987 9982 9976 9972 9967 9964 9959 9955 9952 9949 9945 9942 9939 9937 9935 9933 9931 9929 9927 9924 9922 9920 9919 9917 9916 9915 9914 9914 9913 9913 9912 9912 9912 9913 9914 9915 9917 9918 9920 9922 9925 9927 9928 9930 9931 9934 9937 9940 9943 9947 9951 9955 9960 9964 9968 9972 9977 9982 9987 9994 10000 10006 10014 10022 10030 10039 10049 10059
10041 10039 10036 10033 10030 10027 10024 10020 10017 10014 10011 10008 10005 10002 9999 9995 9992 9987 9984 9979 9974 9969 9964 9960 9957 9954 9950 9947 9944 9940 9937 9934 9932 9930 9928 9926 9924 9922 9920 9919 9917 9915 9914 9914 9913 9912 9912 9912 9912 9912 9912 9912 9913 9914 9915 9917 9919 9921 9924 9925 9927 9929 9930 9932 9935 9939 9943 9947 9951 9955 9959 9964 9968 9972 9976 9981 9987 9994 10000 10007 10014 10022 10031 10040 10050 10060
10037 10035 10032 10029 10026 10023 10020 10017 10014 10010 10007 10004 10001 9998 9995 9991 9988 9984 9980 9975 9970 9966 9962 9958 9954 9951 9948 9945 9942 9939 9935 9932 9930 9927 9925 9924 9922 9920 9919 9917 9915 9914 9913 9912 9912 9911 9911 9911 9911 9911 9911 9911 9912 9913 9915 9916 9918 9920 9923 9925 9927 9929 9930 9932 9935 9939 9942 9947 9951 9955 9959 9963 9967 9972 9976 9982 9987 9994 10001 10008 10015 10024 10032 10042 10052 10062
10033 10030 10028 10025 10022 10019 10016 10013 10010 10007 10004 10000 9997 9994 9990 9987 9984 9980 9976 9972 9967 9963 9959 9955 9952 9949 9945 9942 9940 9937 9934 9930 9928 9925 9924 9922 9920 9919 9917 9915 9914 9913 9912 9911 9910 9910 9910 9910 9910 9910 9910 9910 9911 9912 9914 9915 9917 9919 9922 9924 9927 9928 9930 9932 9935 9938 9942 9946 9950 9955 9959 9962 9967 9971 9976 9982 9988 9994 10001 10009 10016 10025 10034 10043 10053 10064
10029 10027 10024 10021 10019 10015 10012 10009 10007 10004 10000 9997 9994 9990 9987 9984 9980 9977 9973 9969 9964 9960 9957 9953 9949 9946 9943 9940 9937 9934 9932 9929 9927 9924 9922 9920 9919 9917 9915 9914 9913 9912 9910 9910 9909 9909 9909 9909 9909 9910 9910 9910 9911 9912 9913 9914 9916 9919 9921 9924 9926 9928 9930 9932 9934 9937 9941 9945 9950 9954 9959 9962 9967 9971 9976 9981 9987 9994 10001 10009 10017 10025 10034 10044 10054 10065
10025 10023 10020 10017 10014 10012 10009 10005 10003 10000 9997 9994 9990 9987 9983 9979 9976 9973 9969 9965 9962 9957 9954 9950 9947 9944 9940 9937 9935 9932 9929 9927 9925 9922 9920 9919 9917 9915 9914 9912 9911 9910 9909 9909 9908 9908 9908 9909 9909 9909 9909 9910 9910 9911 9912 9914 9915 9917 9920 9923 9925 9928 9930 9932 9934 9937 9940 9944 9949 9954 9958 9963 9967 9972 9976 9982 9987 9994 10001 10009 10017 10025 10035 10045 10055 10067
10021 10019 10016 10014 10010 10008 10005 10002 9999 9996 9994 9990 9987 9984 9980 9976 9972 9969 9965 9962 9958 9954 9951 9947 9944 9941 9939 9935 9932 9930 9927 9925 9922 9920 9919 9917 9915 9914 9912 9911 9910 9909 9908 9907 9907 9907 9907 9907 9908 9908 9909 9909 9910 9910 9912 9913 9915 9917 9919 9922 9925 9928 9930 9932 9934 9936 9940 9944 9948 9953 9957 9962 9967 9971 9976 9982 9988 9995 10002 10009 10017 10026 10035 10045 10057 10068